Regional Weather Roundup
Issued by NWS

Home | Current Version | Previous Version | Text Only | Print | Product List | Glossary On
Versions: 1 2 3 4 5 6 7 8 9 10 11 12 13 14 15 16 17 18 19 20 21 22 23 24 25 26 27 28 29 30 31 32 33 34 35 36 37 38 39 40 41 42 43 44 45 46 47 48 49 50
578
ASUS45 KPSR 280710
RWRAZ

ARIZONA HOURLY REGIONAL WEATHER ROUNDUP
NATIONAL WEATHER SERVICE PHOENIX AZ
1200 AM MST THU JUL 28 2016

NOTE: FAIR INDICATES FEW OR NO CLOUDS BELOW 12,000 FEET WITH NO
SIGNIFICANT WEATHER AND/OR OBSTRUCTIONS TO VISIBILITY.

AZZ001>003-036-280800-
NORTHWEST ARIZONA

CITY           SKY/WX    TMP DP  RH WIND       PRES   REMARKS
BULLHEAD CITY  CLEAR    102  50  17 E3        29.71S
KINGMAN        CLEAR     82  47  29 SE5       29.98S
$$

AZZ004>008-015-016-018-280800-
NORTH CENTRAL ARIZONA

CITY           SKY/WX    TMP DP  RH WIND       PRES   REMARKS
GRAND CANYON   CLEAR     59  40  49 CALM      30.28R
WILLIAMS       CLEAR     63  50  63 S8        30.35S
PRESCOTT       PTCLDY    72  52  49 S9        30.12F
FLAGSTAFF      CLEAR     66  46  48 CALM      30.29F
PAGE           CLEAR     89  28  11 SW6       30.01R
$$

AZZ009>014-017-280800-
NORTHEAST ARIZONA

CITY           SKY/WX    TMP DP  RH WIND       PRES   REMARKS
WINSLOW        CLEAR     72  42  34 SW7       30.10R
SAINT JOHNS    CLEAR     71  40  32 VRB3      30.17R
WINDOW ROCK    CLEAR     62  41  46 CALM      30.26R
$$

AZZ023-280800-
GREATER PHOENIX AREA

CITY           SKY/WX    TMP DP  RH WIND       PRES   REMARKS
PHOENIX        PTCLDY    93  63  36 SE17      29.78R
LUKE AFB       CLEAR     98  59  27 SW16      29.75R
DEER VALLEY    CLEAR     95  58  28 SE15      29.80R
SCOTTSDALE     CLEAR     93  60  33 SE13      29.84R
MESA-GATEWAY   PTCLDY    90  63  40 E9        29.85R
$$

AZZ027-028-280800-
SOUTHWEST MARICOPA COUNTY AND PINAL COUNTY

CITY           SKY/WX    TMP DP  RH WIND       PRES   REMARKS
CASA GRANDE    PTCLDY    88  63  42 S12       29.85F
GILA BEND      FAIR     101  56  22 SE16      29.76S HX 100
$$

AZZ503-504-507>509-280800-
SOUTHEAST ARIZONA

CITY           SKY/WX    TMP DP  RH WIND       PRES   REMARKS
TUCSON         CLOUDY    80  67  64 CALM      29.97R
DAVIS-MONTHAN  MOCLDY    78  68  71 NW2       29.95S
NOGALES        CLOUDY    71  67  87 CALM      30.06F
SIERRA VISTA   CLOUDY    71  64  78 CALM      30.14R
DOUGLAS        MOCLDY    69  66  90 CALM      30.09R
SAFFORD        MOCLDY    78  62  57 E5        30.00S
$$

AZZ020-021-025-026-031-280800-
SOUTHWEST ARIZONA

CITY           SKY/WX    TMP DP  RH WIND       PRES   REMARKS
YUMA           CLEAR     94  62  34 SW7       29.72R
$$

CAZ031-033-041-043-047-048-061-280800-
SOUTHERN CALIFORNIA

CITY           SKY/WX    TMP DP  RH WIND       PRES   REMARKS
DOWNTOWN L.A.  CLEAR     71  63  75 CALM      29.90R
L.A. AIRPORT   PTCLDY    71  65  81 W7        29.90S
SAN DIEGO      PTCLDY    71  64  78 NW5       29.91S
BURBANK        CLEAR     74  63  68 E9        29.90R
ONTARIO        CLEAR     79  45  29 NW5       29.92R
RIVERSIDE      CLEAR     81  51  35 CALM      29.91S
PALM SPRINGS   PTCLDY    98  50  19 NW10      29.74S
EL CENTRO NAS  CLEAR     95  49  20 W9        29.71F
IMPERIAL       CLEAR     94  56  27 W7        29.69S
BLYTHE         CLEAR    102  60  25 SW7       29.70R HX 103
NEEDLES        PTCLDY   104  53  18 SE7       29.73R HX 102
$$

NVZ020-UTZ003-280800-
SOUTHERN NEVADA-UTAH

CITY           SKY/WX    TMP DP  RH WIND       PRES   REMARKS
LAS VEGAS      PTCLDY    99  45  15 S7        29.79R
SALT LAKE CITY CLEAR     81  34  18 S8        30.02S
$$

NMZ009-TXZ055-280800-
NEW MEXICO-WEST TEXAS

CITY           SKY/WX    TMP DP  RH WIND       PRES   REMARKS
ALBUQUERQUE    PTCLDY    74  50  42 E10       30.21R
EL PASO        PTCLDY    81  60  48 CALM      30.07S
$$


........................KEY........................
SKY/WX - SKY CONDITION/WEATHER
TMP    - TEMPERATURE IN FAHRENHEIT
DP     - DEW POINT IN FAHRENHEIT
RH     - RELATIVE HUMIDITY IN PERCENT
WIND   - DIRECTION AND SPEED IN MILES PER HOUR (MPH)
VRB    - VARIABLE WIND DIRECTION
PRES   - MEAN SEA LEVEL PRESSURE IN INCHES OF MERCURY
         F - FALLING PRESSURE   R - RISING PRESSURE
         S - STEADY PRESSURE
VSB    - VISIBILITY IN MILES
HX     - HEAT INDEX IN FAHRENHEIT
WCI    - WIND CHILL INDEX IN FAHRENHEIT
TC     - TEMPERATURE IN CELSIUS WHICH IS ALSO KNOWN AS
         TEMPERATURE IN CENTIGRADE
AFB    - AIR FORCE BASE
         LUKE AFB IS LUKE AIR FORCE BASE
         DAVIS-MONTHAN IS DAVIS-MONTHAN AIR FORCE BASE
NAS    - NAVAL AIR STATION
         EL CENTRO NAS IS EL CENTRO NAVAL AIR STATION
N/A    - NOT AVAILABLE





USA.gov is the U.S. government's official web portal to all federal, state and local government web resources and services.